User: anonymous   Login
Location: Calvatone
(45.1167°N, 10.4333°E)
Time: 18:49:17
(UTC+00:00)
Language:

Cosmos 1536 Rocket - Orbit

View from above orbital plane
View from above orbital plane
View from above satellite
View from above satellite

Ground track
Ground track

The orbit data is extracted from the following two-line orbital elements,

1 14700U 84013B   23150.49470203  .00000454  00000-0  51713-4 0  9992
2 14700  82.5358 285.9692 0019585   6.1010  62.5361 14.83830119102084
Epoch (UTC): 30 May 2023 11:52:22
Eccentricity: 0.0019585
inclination: 82.5358°
perigee height: 603 km
apogee height: 631 km
right ascension of ascending node: 285.9692°
argument of perigee: 6.1010°
revolutions per day: 14.83830119
mean anomaly at epoch: 62.5361°
orbit number at epoch: 10208

The dashed part of the orbit path shows where the satellite is in the earth's shadow,  

DLR